Regional Weather Roundup
Issued by NWS Midland/Odessa, TX

Skip options and go directly to product.
Home | Oldest Version | Previous Version | Current Version | All | Text Only | Save Text | Print | Product List | Glossary On

Skip product version selection by date and time.   
370
ASUS44 KMAF 281401
RWRMAF
MIDLAND AREA WEATHER ROUNDUP
NATIONAL WEATHER SERVICE MIDLAND TX
900 AM CDT SUN AUG 28 2016

...IN SOUTHWEST TEXAS AND SOUTHEAST NEW MEXICO...

CITY           SKY/WX    TMP DP  RH WIND       PRES   REMARKS
ALPINE         SUNNY     69  61  74 CALM      30.25R
ANDREWS        NOT AVBL
ARTESIA        MOSUNNY   68  64  88 SW5       30.17S
BIG SPRING     CLOUDY    73  68  86 N6        30.16S
CARLSBAD       CLOUDY    69  61  75 NW7       30.15R
DRYDEN           N/A     74  70  87 VRB5      30.07R
FORT STOCKTON  SUNNY     73  64  73 S10       30.11S
GUAD PASS      SUNNY     62  60  93 NE15      30.25F
HOBBS          SUNNY     68  66  94 N8        30.19R
MARFA          SUNNY    N/A N/A N/A CALM      30.23R
MIDLAND AIRPK  SUNNY     75  64  70 CALM      30.15S
MIDLAND INTL   SUNNY     75  65  70 NE3       30.13S
ODESSA         MOSUNNY   72  64  76 VRB7      30.14R
PECOS          MOSUNNY   71  64  78 CALM      30.09R
PRESIDIO       NOT AVBL
SEMINOLE       SUNNY     70  59  69 CALM      30.18S
SNYDER           N/A     71  67  88 W6        30.15R
WINK           CLOUDY    74  64  71 SE10      30.10R
$$
...OTHER STATIONS IN TEXAS...

CITY           SKY/WX    TMP DP  RH WIND       PRES   REMARKS
ABILENE        SUNNY     74  70  87 SE8       30.11R
AMARILLO       MOSUNNY   69  61  75 SE9       30.17R
AUSTIN         PTSUNNY   76  72  87 NE10      30.03R
BROWNSVILLE    SUNNY     83  77  82 CALM      29.95S
CORPUS CHRISTI MOSUNNY   82  77  84 N7        29.97R
DALLAS FTW     MOSUNNY   80  70  71 CALM      30.07R
DEL RIO        SUNNY     78  72  81 E6        30.02R
EL PASO        MOSUNNY   69  63  81 E7        30.17R
HOUSTON INT    PTSUNNY   79  73  82 NE8       29.99R
LUBBOCK        PTSUNNY   69  60  73 CALM      30.16S
SAN ANGELO     MOSUNNY   74  68  81 E3        30.10R
SAN ANTONIO    MOSUNNY   78  71  79 N5        30.04R
WACO           SUNNY     77  73  87 NE5       30.06R
WICHITA FALLS  NOT AVBL
$$
...OTHER LOCATIONS IN NEW MEXICO...

CITY           SKY/WX    TMP DP  RH WIND       PRES   REMARKS
ALAMAGORDO     CLOUDY    64  59  82 NE5       30.20R
ALBUQUERQUE    CLOUDY    59  50  72 N8        30.28R
CANNON AFB     CLOUDY    64  60  87 W5        30.20S
CLOVIS         MOSUNNY   63  55  77 CALM      30.19S
HOLLOMAN AFB   CLOUDY    63  62  97 W3        30.18R
ROSWELL        MOSUNNY   67  60  78 W5        30.17S
RUIDOSO          N/A     57  50  77 W3        30.36R
SANTA FE       CLOUDY    57  49  74 N13       30.31R
TRUTH OR CONSE PTSUNNY   63  50  62 NW6       30.23R
TUCUMCARI      MOSUNNY   68  57  68 SW13      30.18R
$$

USA.gov is the U.S. government's official web portal to all federal, state and local government web resources and services.